Windom, MN

10:29 AM CDT on April 27, 2017 (GMT -0500)
Windom Municipal

Weather History for KMWM - October, 2011

Change the Weather History Date:

Sunday, October 16, 2011

  Actual Average Record
Temperature  
Mean Temperature 50 °F -  
Max Temperature 60 °F 58 °F 87 °F (1958)
Min Temperature 41 °F 35 °F 22 °F (1952)
Degree Days  
Heating Degree Days 14    
Moisture  
Dew Point 37 °F    
Average Humidity 63    
Maximum Humidity 93    
Minimum Humidity 27    
Precipitation  
Precipitation 0.00 in - - ()
Sea Level Pressure  
Sea Level Pressure 29.92 in    
Wind  
Wind Speed 10 mph (WNW)    
Max Wind Speed 28 mph    
Max Gust Speed 36 mph    
Visibility 10 miles    
Events Rain    
Averages and records for this station are not official NWS values.
T = Trace of Precipitation, MM = Missing Value Source: NWS Daily Summary

Daily Weather History Graph

Daily Weather History Graph

Search for Another Location

Airport or City:

Trip Planner

Search our weather history database for the weather conditions in past years. The results will help you decide how hot, cold, wet, or windy it might be!

Date:

Astronomy

Oct. 16, 2011 Rise Set
Actual Time 7:35 AM CDT 6:35 PM CDT
Civil Twilight 7:06 AM CDT 7:04 PM CDT
Nautical Twilight 6:33 AM CDT 7:37 PM CDT
Astronomical Twilight 5:59 AM CDT 8:11 PM CDT
Moon 9:13 PM CDT (10/16) 12:02 PM CDT (10/16)
Length of Visible Light 11h 57m
Length of Day
10h 59m
Waning Gibbous, 82% of the Moon is Illuminated
Oct 16
Waning Gibbous
Oct 19
Last Quarter
Oct 26
New
Nov 2
First Quarter
Nov 10
Full

Hourly Weather History & Observations

Time (CDT) Temp. Windchill Dew Point Humidity Pressure Visibility Wind Dir Wind Speed Gust Speed Precip Events Conditions
12:12 AM 50.0 °F - 46.4 °F 87% 29.85 in 10.0 mi Calm Calm - N/A Rain Light Rain
12:33 AM 48.2 °F - 46.4 °F 93% 29.86 in 10.0 mi Calm Calm - N/A   Scattered Clouds
1:12 AM 48.2 °F - 46.4 °F 93% 29.85 in 10.0 mi Calm Calm - N/A   Light Drizzle
1:33 AM 48.2 °F - 46.4 °F 93% 29.90 in 10.0 mi WNW 6.9 mph - N/A   Mostly Cloudy
1:52 AM 48.2 °F - 46.4 °F 93% 29.87 in 10.0 mi NW 5.8 mph - N/A Rain Rain
2:12 AM 48.2 °F - 46.4 °F 93% 29.88 in 10.0 mi WNW 6.9 mph - N/A   Scattered Clouds
2:33 AM 48.2 °F - 46.4 °F 93% 29.86 in 10.0 mi West 3.5 mph - N/A   Mostly Cloudy
2:52 AM 48.2 °F - 46.4 °F 93% 29.87 in 10.0 mi West 6.9 mph - N/A   Overcast
3:12 AM 46.4 °F 42.4 °F 44.6 °F 93% 29.87 in 10.0 mi WNW 8.1 mph - N/A   Overcast
3:52 AM 46.4 °F 42.9 °F 44.6 °F 93% 29.86 in 10.0 mi NW 6.9 mph - N/A   Mostly Cloudy
4:12 AM 46.4 °F 41.9 °F 42.8 °F 87% 29.87 in 10.0 mi NW 9.2 mph - N/A   Clear
4:32 AM 46.4 °F 42.4 °F 42.8 °F 87% 29.87 in 10.0 mi NW 8.1 mph - N/A   Scattered Clouds
4:52 AM 44.6 °F 40.2 °F 42.8 °F 93% 29.88 in 10.0 mi NW 8.1 mph - N/A   Scattered Clouds
5:12 AM 44.6 °F 40.2 °F 41.0 °F 87% 29.89 in 10.0 mi WNW 8.1 mph - N/A   Clear
5:32 AM 44.6 °F 40.2 °F 41.0 °F 87% 29.89 in 10.0 mi WNW 8.1 mph - N/A   Clear
6:12 AM 44.6 °F 39.2 °F 41.0 °F 87% 29.90 in 10.0 mi WNW 10.4 mph - N/A   Clear
6:32 AM 42.8 °F 38.0 °F 41.0 °F 93% 29.92 in 10.0 mi West 8.1 mph - N/A   Clear
6:52 AM 42.8 °F 38.0 °F 39.2 °F 87% 29.92 in 10.0 mi West 8.1 mph - N/A   Clear
7:13 AM 42.8 °F 38.6 °F 39.2 °F 87% 29.92 in 10.0 mi West 6.9 mph - N/A   Clear
7:32 AM 41.0 °F 35.8 °F 39.2 °F 93% 29.91 in 10.0 mi West 8.1 mph - N/A   Clear
7:52 AM 41.0 °F 35.8 °F 39.2 °F 93% 29.92 in 10.0 mi West 8.1 mph - N/A   Clear
8:12 AM 42.8 °F 37.5 °F 41.0 °F 93% 29.93 in 10.0 mi West 9.2 mph - N/A   Clear
8:32 AM 44.6 °F 38.8 °F 42.8 °F 93% 29.94 in 10.0 mi West 11.5 mph - N/A   Clear
8:52 AM 46.4 °F 40.7 °F 42.8 °F 87% 29.94 in 10.0 mi West 12.7 mph - N/A   Clear
9:12 AM 48.2 °F - 42.8 °F 82% 29.94 in 10.0 mi West 12.7 mph - N/A   Clear
9:32 AM 50.0 °F - 44.6 °F 82% 29.94 in 10.0 mi West 12.7 mph - N/A   Clear
9:52 AM 51.8 °F - 44.6 °F 76% 29.95 in 10.0 mi WNW 17.3 mph 20.7 mph N/A   Scattered Clouds
10:13 AM 53.6 °F - 44.6 °F 72% 29.95 in 10.0 mi WNW 23.0 mph 26.5 mph N/A   Scattered Clouds
10:32 AM 53.6 °F - 42.8 °F 67% 29.96 in 10.0 mi WNW 23.0 mph 27.6 mph N/A   Clear
10:52 AM 53.6 °F - 41.0 °F 62% 29.96 in 10.0 mi WNW 20.7 mph 26.5 mph N/A   Clear
11:12 AM 55.4 °F - 41.0 °F 58% 29.96 in 10.0 mi WNW 19.6 mph 25.3 mph N/A   Clear
11:32 AM 55.4 °F - 39.2 °F 54% 29.96 in 10.0 mi WNW 20.7 mph 26.5 mph N/A   Clear
11:53 AM 57.2 °F - 37.4 °F 48% 29.96 in 10.0 mi WNW 20.7 mph 31.1 mph N/A   Clear
12:12 PM 57.2 °F - 33.8 °F 41% 29.96 in 10.0 mi NW 20.7 mph 31.1 mph N/A   Clear
12:32 PM 57.2 °F - 33.8 °F 41% 29.96 in 10.0 mi WNW 23.0 mph 32.2 mph N/A   Scattered Clouds
12:53 PM 59.0 °F - 30.2 °F 34% 29.95 in 10.0 mi WNW 21.9 mph 32.2 mph N/A   Scattered Clouds
1:12 PM 60.8 °F - 32.0 °F 34% 29.95 in 10.0 mi WNW 19.6 mph 27.6 mph N/A   Scattered Clouds
1:32 PM 60.8 °F - 28.4 °F 29% 29.95 in 10.0 mi WNW 23.0 mph 35.7 mph N/A   Clear
2:12 PM 60.8 °F - 28.4 °F 29% 29.94 in 10.0 mi West 24.2 mph 33.4 mph N/A   Clear
2:32 PM 60.8 °F - 28.4 °F 29% 29.94 in 10.0 mi WNW 21.9 mph 33.4 mph N/A   Clear
2:53 PM 60.8 °F - 28.4 °F 29% 29.94 in 10.0 mi WNW 25.3 mph 33.4 mph N/A   Clear
3:12 PM 60.8 °F - 28.4 °F 29% 29.93 in 10.0 mi WNW 26.5 mph 33.4 mph N/A   Clear
3:32 PM 60.8 °F - 26.6 °F 27% 29.93 in 10.0 mi WNW 27.6 mph 32.2 mph N/A   Clear
3:52 PM 60.8 °F - 28.4 °F 29% 29.93 in 10.0 mi WNW 26.5 mph 32.2 mph N/A   Clear
4:12 PM 60.8 °F - 28.4 °F 29% 29.93 in 10.0 mi West 24.2 mph 29.9 mph N/A   Clear
4:32 PM 60.8 °F - 28.4 °F 29% 29.93 in 10.0 mi West 21.9 mph 33.4 mph N/A   Clear
4:52 PM 60.8 °F - 28.4 °F 29% 29.93 in 10.0 mi WNW 25.3 mph 28.8 mph N/A   Clear
5:12 PM 60.8 °F - 28.4 °F 29% 29.93 in 10.0 mi West 25.3 mph 32.2 mph N/A   Clear
5:32 PM 59.0 °F - 26.6 °F 29% 29.93 in 10.0 mi WNW 26.5 mph 32.2 mph N/A   Clear
5:52 PM 57.2 °F - 26.6 °F 31% 29.93 in 10.0 mi WNW 21.9 mph 27.6 mph N/A   Clear
6:12 PM 57.2 °F - 28.4 °F 33% 29.93 in 10.0 mi WNW 15.0 mph - N/A   Clear
6:32 PM 55.4 °F - 28.4 °F 36% 29.93 in 10.0 mi WNW 12.7 mph - N/A   Clear
6:52 PM 53.6 °F - 30.2 °F 41% 29.93 in 10.0 mi WNW 12.7 mph - N/A   Clear
7:12 PM 51.8 °F - 30.2 °F 44% 29.94 in 10.0 mi West 10.4 mph - N/A   Clear
7:32 PM 48.2 °F - 30.2 °F 50% 29.95 in 10.0 mi West 10.4 mph - N/A   Clear
7:52 PM 48.2 °F - 32.0 °F 54% 29.95 in 10.0 mi West 11.5 mph - N/A   Clear
8:12 PM 48.2 °F - 32.0 °F 54% 29.95 in 10.0 mi West 9.2 mph - N/A   Clear
8:32 PM 46.4 °F 41.9 °F 32.0 °F 57% 29.95 in 10.0 mi West 9.2 mph - N/A   Clear
8:52 PM 46.4 °F 41.5 °F 33.8 °F 62% 29.95 in 10.0 mi West 10.4 mph - N/A   Clear
9:13 PM 46.4 °F 42.4 °F 33.8 °F 62% 29.95 in 10.0 mi West 8.1 mph - N/A   Clear
9:32 PM 44.6 °F 40.7 °F 33.8 °F 66% 29.96 in 10.0 mi West 6.9 mph - N/A   Clear
9:52 PM 42.8 °F 39.3 °F 33.8 °F 70% 29.96 in 10.0 mi West 5.8 mph - N/A   Clear
10:12 PM 41.0 °F 35.2 °F 33.8 °F 76% 29.96 in 10.0 mi WSW 9.2 mph - N/A   Clear
10:32 PM 41.0 °F 35.2 °F 33.8 °F 76% 29.96 in 10.0 mi WSW 9.2 mph - N/A   Clear
10:53 PM 41.0 °F 35.2 °F 33.8 °F 76% 29.97 in 10.0 mi WSW 9.2 mph - N/A   Clear
11:12 PM 41.0 °F 35.2 °F 33.8 °F 76% 29.97 in 10.0 mi WSW 9.2 mph - N/A   Clear
11:32 PM 41.0 °F 35.2 °F 33.8 °F 76% 29.97 in 10.0 mi WSW 9.2 mph - N/A   Clear
11:52 PM 39.2 °F 33.6 °F 33.8 °F 81% 29.97 in 10.0 mi West 8.1 mph - N/A   Clear